Flag for Canada

Past Weather in La Ronge, Saskatchewan, Canada — Yesterday and Last 2 Weeks

Now
57 °F

Scattered clouds.


Feels Like: 56 °F
Forecast: 74 / 51 °F
Wind: 6 mph from South

Location: La Ronge

Current Time: Jul 7, 2020 at 7:32:19 am

Latest Report: Jul 7, 2020 at 6:00 am


Visibility: 15 mi

Pressure: 29.86 "Hg

Humidity: 82%

Dew Point: 52 °F

Location of La RongeLocation

Past Weather in La Ronge — Graph

°F

La Ronge Temperature Yesterday

Maximum temperature yesterday: 72 °F (at 3:00 pm)
Minimum temperature yesterday: 55 °F (at 5:00 am)
Average temperature yesterday: 64 °F

High & Low Weather Summary for the Past Weeks

 TemperatureHumidityPressure
High82 °F (Jul 4, 2:00 pm)100% (Jun 24, 11:45 am)30.03 "Hg (Jun 24, 11:45 am)
Low50 °F (Jun 22, 6:00 am)31% (Jun 22, 1:00 pm)29.59 "Hg (Jun 27, 11:00 am)
Average63 °F77%29.82 "Hg
* Reported Jun 22 6:00 am — Jul 7 6:00 am, La Ronge. Weather by CustomWeather, © 2020

Note: Actual official high and low records may vary slightly from our data, if they occured in-between our weather recording intervals... More about our weather records

La Ronge Weather History for the Previous 24 Hours

Scroll right to see more
 ConditionsComfort  
Time TempWeatherWind HumidityBarometerVisibility
6:00 am
Tue, Jul 7
57 °FScattered clouds.6 mph82%29.86 "Hg15 mi
5:00 am55 °FScattered clouds.3 mph88%29.86 "Hg15 mi
4:00 am55 °FPassing clouds.5 mph88%29.86 "Hg15 mi
3:00 am55 °FClear.5 mph88%29.86 "Hg15 mi
2:00 am59 °FClear.6 mph82%29.87 "Hg15 mi
1:00 am59 °FClear.5 mph77%29.88 "Hg15 mi
12:00 am59 °FClear.5 mph77%29.87 "Hg15 mi
11:00 pm
Mon, Jul 6
55 °FClear.2 mph82%29.87 "Hg15 mi
10:00 pm57 °FClear.2 mph77%29.87 "Hg15 mi
9:00 pm66 °FPassing clouds.2 mph56%29.85 "Hg15 mi
8:00 pm70 °FPassing clouds.8 mph46%29.86 "Hg15 mi
7:00 pm70 °FPassing clouds.12 mph46%29.86 "Hg15 mi
6:00 pm72 °FPassing clouds.12 mph44%29.87 "Hg15 mi
5:00 pm72 °FScattered clouds.10 mph47%29.87 "Hg15 mi
4:00 pm70 °FScattered clouds.15 mph50%29.87 "Hg15 mi
3:00 pm72 °FScattered clouds.17 mph44%29.86 "Hg15 mi
2:12 pm68 °FPartly sunny.16 mph56%29.88 "Hg15 mi
1:33 pm66 °FSprinkles. Partly sunny.14 mph60%29.87 "Hg15 mi
1:00 pm68 °FPartly sunny.13 mph60%29.87 "Hg15 mi
12:00 pm66 °FPartly sunny.16 mph64%29.87 "Hg15 mi
11:00 am68 °FPartly sunny.16 mph60%29.87 "Hg15 mi
10:00 am66 °FPartly sunny.13 mph68%29.88 "Hg15 mi
9:00 am64 °FPartly sunny.12 mph73%29.88 "Hg15 mi
8:00 am63 °FScattered clouds.10 mph77%29.86 "Hg15 mi
7:00 am59 °FPassing clouds.10 mph88%29.87 "Hg15 mi
Weather by CustomWeather, © 2020

See weather overview